Lid_Strength_Index
4 6 7 6 6 6 8 9 9 8 6 6 6 6 5 4 4 4 5 5 4 4 3 2 2 1 1 1 1 1 1 0 0 1 1 1 1 1 0 -0 -1 -1 -0 -0
6 7 5 5 5 6 6 8 9 7 5 6 6 6 5 5 4 4 5 5 5 4 3 3 2 2 1 2 1 1 1 1 0 0 0 0 0 0 0 -0 -1 -1 -1 -1
7 6 5 5 6 7 7 7 7 7 6 6 6 7 6 6 4 4 3 4 4 4 4 3 3 2 2 2 2 1 1 1 0 -0 0 0 -0 -0 1 0 -0 -0 -1 -2
6 5 6 6 7 6 8 6 6 7 7 9 6 11 7 7 6 5 4 4 4 4 4 3 3 3 2 2 1 1 1 1 0 -0 1 1 2 2 1 0 -0 -1 -1 -1
7 6 6 7 6 6 7 5 6 7 7 8 8 10 8 6 8 5 4 4 3 4 4 3 3 2 2 1 1 1 1 1 0 0 -0 1 1 1 1 1 0 0 -1 -1
6 4 5 6 5 5 5 6 6 6 7 11 8 9 9 10 8 5 5 4 4 4 3 3 2 2 2 1 1 1 1 1 1 0 0 1 1 0 1 1 1 1 1 0
6 6 5 5 6 5 6 7 11 11 11 11 8 9 8 6 5 5 5 4 4 3 3 3 3 3 2 2 2 2 1 2 1 1 0 1 0 0 1 0 1 1 1 1
9 10 6 5 6 7 7 7 10 13 13 12 10 12 8 5 4 4 4 4 4 4 3 3 3 3 3 2 2 2 2 2 1 1 1 0 -1 -0 0 0 1 1 1 1
8 9 5 5 5 5 7 8 6 9 8 10 12 9 6 5 5 4 5 4 4 4 3 3 3 3 3 2 2 2 2 2 1 1 0 -0 0 1 1 0 -1 0 0 0
6 9 6 5 5 5 6 6 9 9 12 13 10 11 12 8 6 6 5 5 5 4 3 3 3 3 2 2 2 2 1 1 1 1 1 2 1 1 1 1 0 0 0 -0
6 7 7 6 7 7 7 8 7 8 9 12 16 14 8 10 7 6 6 5 5 4 4 3 3 2 2 2 2 2 2 2 1 1 2 2 1 1 0 1 0 0 -0 -0
5 7 9 8 5 5 6 7 7 10 10 9 13 12 6 7 6 5 5 5 4 3 3 3 3 3 3 2 2 2 2 2 1 2 3 2 1 1 1 1 0 -0 0 -1
5 7 10 9 7 6 7 6 6 7 7 10 12 11 5 6 5 5 5 5 4 4 3 3 3 3 3 3 2 2 2 2 1 1 1 1 1 1 0 0 0 -0 -0 -0
4 6 8 10 8 7 8 7 6 7 9 9 9 9 9 8 8 7 5 5 4 4 4 3 3 4 3 3 2 2 2 1 1 1 1 1 1 1 1 0 0 -0 -0 -0
5 8 7 7 7 7 7 7 7 8 7 9 8 10 10 9 8 7 6 4 4 4 4 4 4 4 3 3 2 2 2 1 1 1 1 1 1 0 0 0 -0 -0 -1 -0
5 8 7 8 7 7 8 7 7 7 7 7 7 10 7 7 7 7 6 5 4 4 4 4 3 3 3 3 3 2 2 2 1 1 2 1 1 1 0 0 0 -0 -0 -0
6 7 9 10 7 7 9 7 7 7 6 7 8 8 7 7 7 7 6 4 4 4 4 3 3 3 3 2 2 2 2 1 1 1 1 1 1 1 1 1 1 1 0 -1
7 9 8 10 9 13 7 5 5 6 6 6 7 7 6 6 5 5 3 4 4 4 3 3 3 3 2 2 2 1 1 1 1 2 1 1 1 1 1 1 1 1 1 1
5 7 10 12 11 8 7 6 6 7 7 5 7 7 6 5 5 5 4 4 4 4 3 3 3 2 2 2 2 1 2 1 2 2 1 1 1 1 1 2 1 0 1 1
5 7 9 10 12 13 8 6 5 5 9 6 7 8 7 6 9 8 4 4 3 3 3 3 2 2 2 2 1 2 2 2 2 2 1 1 1 1 1 1 1 1 1 1
8 9 10 10 11 9 8 6 5 11 12 5 5 6 6 7 6 5 3 4 4 3 3 2 2 2 2 2 1 2 2 2 1 1 1 1 1 1 1 1 1 1 1 1
10 11 10 10 11 13 7 6 11 9 6 5 4 5 6 5 5 4 4 4 4 4 3 3 3 3 2 2 2 2 2 1 1 1 1 1 1 1 1 1 1 1 1 1
10 10 13 11 10 7 6 8 6 4 5 5 4 4 4 5 5 4 4 4 3 3 3 3 3 3 2 2 2 3 2 1 1 1 1 1 1 1 0 1 1 2 1 2
7 6 11 10 8 6 6 6 6 5 4 4 3 3 3 4 4 4 4 4 3 3 3 3 3 3 3 2 1 1 1 1 1 2 1 1 1 2 3 2 1 2 2 2
8 7 9 9 8 7 6 5 5 5 4 3 3 3 3 4 4 4 4 4 3 3 2 2 3 3 3 2 2 1 1 1 2 1 2 2 1 3 5 8 8 6 2 3
7 9 11 11 8 6 6 4 4 4 4 3 4 4 3 3 4 3 4 3 3 3 2 2 2 2 2 2 2 1 0 1 1 2 2 2 2 2 4 6 7 11 12 11